Change the Weather History Date:

Tuesday, January 29, 2013

  Actual Average (PASK) Record (PASK)
Temperature  
Mean Temperature -6 °F -  
Max Temperature -5 °F -1 °F 30 °F (2007)
Min Temperature -11 °F -12 °F -50 °F (2012)
Degree Days  
Heating Degree Days 70    
Moisture  
Dew Point -20 °F    
Average Humidity 52    
Maximum Humidity 64    
Minimum Humidity 40    
Precipitation  
Precipitation 0.00 in - - ()
Sea Level Pressure  
Sea Level Pressure 30.22 in    
Wind  
Wind Speed 4 mph (NE)    
Max Wind Speed 10 mph    
Max Gust Speed -    
Visibility 10 miles    
Events      
Averages and records for this station are not official NWS values.
T = Trace of Precipitation, MM = Missing Value Source: NWS Daily Summary

Daily Weather History Graph

Daily Weather History Graph

Search for Another Location

Airport or City:

Trip Planner

Search our weather history database for the weather conditions in past years. The results will help you decide how hot, cold, wet, or windy it might be!

Date:

Astronomy

Jan. 29, 2013 Rise Set
Actual Time 10:56 AM AKST 4:54 PM AKST
Civil Twilight 9:47 AM AKST 6:03 PM AKST
Nautical Twilight 8:39 AM AKST 7:11 PM AKST
Astronomical Twilight 7:37 AM AKST 8:13 PM AKST
Moon 10:01 PM AKST (1/29) 10:14 AM AKST (1/29)
Length of Visible Light 8h 15m
Length of Day
5h 57m
Waning Gibbous, 93% of the Moon is Illuminated
Jan 29
Waning Gibbous
Feb 3
Last Quarter
Feb 9
New
Feb 17
First Quarter
Feb 25
Full

Hourly Weather History & Observations

Time (AKST) Temp. Windchill Dew Point Humidity Pressure Visibility Wind Dir Wind Speed Gust Speed Precip Events Conditions
12:01 AM -2.0 °F -13.9 °F -20.0 °F 42% 30.42 in 10.0 mi ESE 5.8 mph - N/A   Clear
1:01 AM -4.0 °F -14.6 °F -20.0 °F 46% 30.40 in 10.0 mi East 4.6 mph - N/A   Clear
2:01 AM -5.1 °F -15.8 °F -20.0 °F 49% 30.38 in 10.0 mi Variable 4.6 mph - N/A   Clear
3:01 AM -0.9 °F -14.1 °F -20.0 °F 40% 30.36 in 10.0 mi ENE 6.9 mph - N/A   Clear
4:01 AM -0.9 °F - -20.0 °F 40% 30.33 in 10.0 mi Calm Calm - N/A   Clear
5:01 AM -2.9 °F - -20.0 °F 44% 30.31 in 10.0 mi Calm Calm - N/A   Clear
6:01 AM -9.0 °F -27.4 °F -23.1 °F 50% 30.28 in 10.0 mi NW 10.4 mph - N/A   Clear
7:01 AM -5.1 °F -13.6 °F -20.0 °F 49% 30.26 in 10.0 mi ENE 3.5 mph - N/A   Clear
8:01 AM -9.0 °F -18.2 °F -20.9 °F 56% 30.25 in 10.0 mi East 3.5 mph - N/A   Clear
9:01 AM -8.0 °F - -22.0 °F 50% 30.23 in 10.0 mi Calm Calm - N/A   Clear
10:01 AM -8.0 °F - -20.9 °F 53% 30.22 in 10.0 mi Calm Calm - N/A   Clear
11:01 AM -8.0 °F - -20.9 °F 53% 30.21 in 10.0 mi Calm Calm - N/A   Clear
12:01 PM -4.0 °F -12.4 °F -18.9 °F 49% 30.19 in 10.0 mi NNE 3.5 mph - N/A   Clear
1:01 PM -0.9 °F - -18.9 °F 42% 30.18 in 10.0 mi Calm Calm - N/A   Clear
2:01 PM -5.1 °F - -20.9 °F 47% 30.17 in 10.0 mi Calm Calm - N/A   Clear
3:01 PM -9.0 °F -20.4 °F -20.9 °F 56% 30.16 in 10.0 mi East 4.6 mph - N/A   Clear
4:01 PM -9.9 °F -23.4 °F -20.9 °F 59% 30.15 in 10.0 mi Variable 5.8 mph - N/A   Clear
5:01 PM -11.0 °F -22.8 °F -22.0 °F 58% 30.13 in 10.0 mi East 4.6 mph - N/A   Clear
6:01 PM -11.9 °F - -23.1 °F 58% 30.12 in 10.0 mi Calm Calm - N/A   Clear
7:01 PM -11.9 °F -21.5 °F -22.0 °F 61% 30.12 in 10.0 mi WNW 3.5 mph - N/A   Clear
8:01 PM -6.0 °F -21.5 °F -18.9 °F 54% 30.11 in 10.0 mi ENE 8.1 mph - N/A   Clear
9:01 PM -11.0 °F -22.8 °F -20.0 °F 64% 30.10 in 10.0 mi Variable 4.6 mph - N/A   Clear
10:01 PM -7.1 °F -21.4 °F -18.0 °F 59% 30.09 in 10.0 mi NNE 6.9 mph - N/A   Partly Cloudy
11:01 PM -7.1 °F -15.9 °F -18.0 °F 59% 30.07 in 10.0 mi ENE 3.5 mph - N/A   Scattered Clouds